[[{"header":{"parameterUnit":"m.s-1","parameterCategory":1,"la1":30.2991,"la2":30.254,"lo1":-89.0895,"lo2":-89.0444,"dy":0.0017,"dx":0.0017,"nx":28,"ny":28,"refTime":"2023-08-23T03:00:00:Z","depth":0,"parameterNumber":2,"parameterNumberName":"U-component_of_WINDS"},"data":[0,0,0,0,0,0,0,0,0,0,0,0,0,0,0,0,0,0,0,0,0,0,0,0,0,0,0,0,0,0,0,0,0,0,0,0,0,0,0,0,0,0,0,0,0,0,0,0,0,0,0,0,0,0,0,0,0,0,-0.1874,-0.1873,0,-0.1766,-0.1765,-0.1763,-0.1741,-0.1741,-0.1742,-0.1743,-0.1631,-0.1627,-0.1624,0,0,0,0,0,0,0,0,0,0,0,0,0,-0.206,-0.2057,-0.1874,-0.1873,-0.1872,-0.1766,-0.1765,-0.1763,-0.174,-0.1741,-0.1742,-0.1743,-0.1632,-0.1628,-0.1623,0,0,0,0,0,0,0,0,0,0,0,0,0,-0.1968,-0.2056,-0.1875,-0.1848,-0.1844,-0.1766,-0.1765,-0.1763,-0.174,-0.1741,-0.1743,-0.1744,-0.1634,-0.1628,-0.1623,-0.1564,0,0,-0.1606,-0.1603,0,0,0,0,0,0,0,0,-0.1974,-0.1962,-0.1853,-0.1849,-0.1845,-0.1768,-0.1789,-0.1696,-0.174,-0.178,-0.1743,-0.1744,-0.1676,-0.1667,-0.1644,-0.1559,-0.1554,-0.1605,-0.1602,-0.1599,-0.1598,0,0,0,0,0,0,0,-0.198,-0.1966,-0.1831,-0.1851,-0.1847,-0.184,-0.1829,-0.1771,-0.1722,-0.1776,-0.1774,-0.1762,-0.1674,-0.1649,-0.1641,-0.1552,-0.1605,-0.16,-0.1597,-0.1595,-0.1413,-0.1412,0,0,0,0,0,0,-0.1991,-0.1972,-0.1835,-0.1828,-0.1914,-0.1836,-0.1823,-0.1792,-0.1723,-0.1713,-0.1761,-0.1761,-0.1658,-0.1647,-0.1637,-0.1563,-0.1599,-0.1594,-0.1591,-0.1415,-0.1413,-0.1411,0,0,0,0,0,0,-0.1995,-0.1979,-0.1839,-0.1899,-0.1881,-0.1832,-0.1796,-0.1789,-0.1764,-0.1711,-0.1702,-0.1745,-0.1659,-0.1645,-0.1582,-0.1559,-0.1592,-0.1587,-0.1417,-0.1414,-0.1412,-0.1415,0,0,0,0,0,0,-0.2001,-0.1981,-0.1958,-0.1899,-0.1878,-0.1787,-0.1795,-0.1786,-0.1755,-0.1754,-0.1694,-0.1685,-0.1658,-0.1591,-0.1577,-0.1552,-0.1582,-0.1418,-0.1416,-0.1413,-0.1417,-0.1414,-0.1411,0,0,0,0,0,-0.2008,-0.1964,-0.1957,-0.1941,-0.1849,-0.1786,-0.1773,-0.1744,-0.1753,-0.173,-0.1695,-0.1687,-0.1564,-0.1585,-0.1569,-0.1542,-0.142,-0.1416,-0.1413,-0.1419,-0.1414,-0.1411,0,0,0,0,0,0,-0.2021,-0.1955,-0.1948,-0.1883,-0.184,-0.1782,-0.1751,-0.1741,-0.1694,-0.1695,-0.1661,-0.1647,-0.1587,-0.1558,-0.1582,-0.1481,-0.1492,-0.1486,-0.1502,-0.1497,-0.1494,-0.1502,-0.1578,0,0,0,0,0,-0.2017,-0.1971,-0.1916,-0.1864,-0.1843,-0.1801,-0.1773,-0.1754,-0.1708,-0.1689,-0.1651,-0.1606,-0.1557,-0.1526,-0.1478,-0.1413,-0.1399,-0.1387,-0.1383,-0.1381,-0.1375,-0.1339,-0.1332,-0.1401,-0.1401,-0.1401,0,0,-0.2007,-0.1965,-0.1939,-0.1866,-0.1831,-0.1784,-0.1786,-0.1736,-0.1701,-0.1682,-0.162,-0.159,-0.1538,-0.1474,-0.1444,-0.1448,-0.1354,-0.1377,-0.1375,-0.1371,-0.1335,-0.1328,-0.1323,-0.1398,-0.1399,-0.1399,0,0,-0.1965,-0.1929,-0.1882,-0.1847,-0.1793,-0.1765,-0.1754,-0.1697,-0.1676,-0.1614,-0.1598,-0.1556,-0.1473,-0.1436,-0.1407,-0.1351,-0.1341,-0.1336,-0.1319,-0.1283,-0.1278,-0.1273,-0.1253,-0.1246,-0.1331,-0.1331,-0.1331,0,-0.196,-0.1889,-0.1859,-0.181,-0.1779,-0.1759,-0.1711,-0.1678,-0.1611,-0.1589,-0.1595,-0.149,-0.1453,-0.138,-0.1367,-0.1344,-0.133,-0.1343,-0.1281,-0.1276,-0.1271,-0.1251,-0.1244,-0.1331,-0.1331,-0.1331,-0.1331,0,-0.1885,-0.1836,-0.1804,-0.1741,-0.1705,-0.1657,-0.162,-0.1587,-0.1572,-0.1543,-0.148,-0.1436,-0.1378,-0.136,-0.1344,-0.1284,-0.1289,-0.1288,-0.1299,-0.1265,-0.1246,-0.1238,-0.133,-0.1331,-0.1331,-0.1331,0,0,-0.1848,-0.1769,-0.1758,-0.1728,-0.1668,-0.1629,-0.158,-0.1524,-0.1497,-0.1451,-0.1409,-0.1339,-0.1338,-0.1305,-0.1285,-0.1254,-0.1212,-0.1257,-0.1255,-0.125,-0.1143,-0.1144,-0.1135,-0.1205,-0.1203,-0.1202,-0.1147,0,-0.1799,-0.171,-0.1682,-0.1608,-0.1562,-0.1543,-0.15,-0.1458,-0.143,-0.1387,-0.1356,-0.1307,-0.131,-0.1289,-0.1258,-0.1224,-0.119,-0.1227,-0.1165,-0.1163,-0.1178,-0.1125,-0.1126,-0.1076,-0.114,-0.1138,-0.1138,0,-0.1729,-0.1683,-0.1605,-0.1549,-0.1529,-0.1491,-0.1437,-0.1397,-0.1348,-0.133,-0.1293,-0.1275,-0.1222,-0.1236,-0.1163,-0.1189,-0.1162,-0.1141,-0.1139,-0.1132,-0.1148,-0.1117,-0.106,-0.1052,-0.1126,-0.1127,-0.1127,0,-0.171,-0.1628,-0.1571,-0.1546,-0.148,-0.1454,-0.1425,-0.1378,-0.1346,-0.1299,-0.1278,-0.1226,-0.1197,-0.1157,-0.1126,-0.1139,-0.1055,-0.1066,-0.1038,-0.1039,-0.1021,-0.1023,-0.0959,-0.1004,-0.1004,-0.1005,-0.1005,0,-0.1658,-0.161,-0.1561,-0.1526,-0.1472,-0.144,-0.1387,-0.1358,-0.1316,-0.1274,-0.1254,-0.1215,-0.1176,-0.1132,-0.1107,-0.105,-0.1037,-0.1021,-0.1015,-0.1022,-0.1025,-0.1004,-0.1007,-0.1003,-0.1003,-0.1003,-0.1004,0,-0.1627,-0.1592,-0.1528,-0.1471,-0.1456,-0.1419,-0.137,-0.1334,-0.1306,-0.1253,-0.1239,-0.1194,-0.1141,-0.1105,-0.1038,-0.1021,-0.0959,-0.0954,-0.0975,-0.0972,-0.0946,-0.0949,-0.0866,-0.0854,-0.0908,-0.0908,-0.0907,0,-0.1596,-0.1559,-0.1498,-0.1469,-0.144,-0.1393,-0.136,-0.1327,-0.1294,-0.1236,-0.1208,-0.1154,-0.1108,-0.1025,-0.0986,-0.0934,-0.0927,-0.0902,-0.0919,-0.0928,-0.0926,-0.0929,-0.0925,-0.0899,-0.0899,-0.0898,-0.0898,0,-0.1544,-0.1528,-0.1482,-0.143,-0.1392,-0.1349,-0.1307,-0.1284,-0.1243,-0.1207,-0.1153,-0.1118,-0.1049,-0.0995,-0.0939,-0.0909,-0.0897,-0.0893,-0.0884,-0.0891,-0.0905,-0.0897,-0.0967,-0.0895,-0.0895,-0.0895,-0.0896,-0.0896,-0.1511,-0.1478,-0.143,-0.1379,-0.1343,-0.1304,-0.1268,-0.1235,-0.1189,-0.113,-0.1113,-0.1057,-0.1009,-0.0933,-0.0903,-0.0858,-0.086,-0.0847,-0.0843,-0.084,-0.084,-0.0912,-0.0847,-0.0847,-0.0847,-0.0847,-0.0848,0,-0.1458,-0.1426,-0.138,-0.1321,-0.1281,-0.1273,-0.1225,-0.1192,-0.1143,-0.11,-0.1056,-0.0993,-0.0941,-0.0898,-0.0844,-0.0817,-0.0809,-0.0804,-0.0805,-0.0798,-0.0841,-0.0854,-0.081,-0.081,-0.081,-0.081,-0.081,-0.081,-0.1426,-0.1368,-0.1347,-0.1271,-0.124,-0.1184,-0.1158,-0.1121,-0.1086,-0.1017,-0.0974,-0.0947,-0.0903,-0.0846,-0.0798,-0.0787,-0.0768,-0.0763,-0.0751,-0.0791,-0.0795,-0.0799,-0.0812,-0.0759,-0.0759,-0.0711,-0.0711,-0.0711]},{"header":{"parameterUnit":"m.s-1","parameterCategory":1,"la1":30.2991,"la2":30.254,"lo1":-89.0895,"lo2":-89.0444,"dy":0.0017,"dx":0.0017,"nx":28,"ny":28,"refTime":"2023-08-23T03:00:00:Z","depth":0,"parameterNumber":3,"parameterNumberName":"V-component_of_WINDS"},"data":[0,0,0,0,0,0,0,0,0,0,0,0,0,0,0,0,0,0,0,0,0,0,0,0,0,0,0,0,0,0,0,0,0,0,0,0,0,0,0,0,0,0,0,0,0,0,0,0,0,0,0,0,0,0,0,0,0,0,0.1583,0.1583,0,0.1578,0.1578,0.1578,0.1567,0.1566,0.1566,0.1566,0.156,0.156,0.156,0,0,0,0,0,0,0,0,0,0,0,0,0,0.1577,0.1577,0.1583,0.1583,0.1583,0.1578,0.1578,0.1578,0.1567,0.1566,0.1566,0.1566,0.156,0.156,0.156,0,0,0,0,0,0,0,0,0,0,0,0,0,0.1577,0.1577,0.1583,0.1576,0.1576,0.1578,0.1578,0.1578,0.1567,0.1566,0.1566,0.1566,0.156,0.156,0.156,0.1569,0,0,0.1561,0.1561,0,0,0,0,0,0,0,0,0.1577,0.1577,0.1577,0.1577,0.1576,0.1573,0.1574,0.1575,0.1567,0.157,0.1566,0.1565,0.1565,0.1564,0.1564,0.1568,0.1568,0.1561,0.1561,0.1561,0.1561,0,0,0,0,0,0,0,0.1577,0.1577,0.1581,0.1577,0.1577,0.1572,0.1572,0.1574,0.1569,0.157,0.1569,0.1569,0.1564,0.1564,0.1564,0.1568,0.1561,0.1561,0.1561,0.1561,0.1573,0.1574,0,0,0,0,0,0,0.1578,0.1577,0.1581,0.1581,0.1576,0.1573,0.1572,0.1574,0.1569,0.1568,0.1569,0.1568,0.1564,0.1564,0.1564,0.157,0.1561,0.1561,0.1561,0.1573,0.1573,0.1574,0,0,0,0,0,0,0.1578,0.1579,0.1581,0.1579,0.1579,0.1573,0.1575,0.1574,0.1574,0.1569,0.1568,0.157,0.1564,0.1564,0.1566,0.157,0.1561,0.1561,0.1573,0.1573,0.1574,0.1584,0,0,0,0,0,0,0.1578,0.1579,0.1583,0.1579,0.1579,0.1585,0.1576,0.1574,0.1575,0.1573,0.157,0.1569,0.1564,0.1566,0.1567,0.157,0.1561,0.1573,0.1573,0.1573,0.1584,0.1585,0.1586,0,0,0,0,0,0.1578,0.1587,0.1583,0.1584,0.1584,0.1586,0.1586,0.158,0.1575,0.1578,0.1574,0.1569,0.1569,0.1567,0.1567,0.157,0.1572,0.1573,0.1573,0.1583,0.1585,0.1586,0,0,0,0,0,0,0.1593,0.1587,0.1582,0.1591,0.1589,0.1584,0.1588,0.1583,0.1582,0.1581,0.1573,0.1572,0.1575,0.1573,0.157,0.1575,0.157,0.157,0.1577,0.1579,0.158,0.158,0.1561,0,0,0,0,0,0.1597,0.1599,0.1593,0.1601,0.16,0.1594,0.1595,0.159,0.1587,0.1587,0.1583,0.158,0.1579,0.1579,0.1578,0.1583,0.158,0.1585,0.1586,0.1587,0.1588,0.1587,0.1588,0.1576,0.1576,0.1576,0,0,0.1605,0.1602,0.1605,0.1604,0.1602,0.1602,0.1594,0.1596,0.1596,0.1587,0.1589,0.1585,0.1581,0.1584,0.1585,0.1582,0.159,0.1588,0.1589,0.1589,0.1587,0.1589,0.159,0.1576,0.1576,0.1576,0,0,0.1621,0.1621,0.1625,0.1622,0.1619,0.1614,0.1615,0.161,0.1607,0.1608,0.16,0.1599,0.1599,0.1595,0.1594,0.1603,0.1597,0.1603,0.161,0.1609,0.161,0.161,0.1611,0.1612,0.1604,0.1604,0.1604,0,0.1633,0.1635,0.1628,0.163,0.1628,0.1619,0.1622,0.1619,0.1616,0.1614,0.1611,0.1607,0.1604,0.1604,0.1606,0.1606,0.1605,0.1604,0.161,0.1611,0.1611,0.1612,0.1613,0.1604,0.1604,0.1604,0.1604,0,0.1647,0.1648,0.1652,0.1647,0.1646,0.1649,0.1641,0.164,0.1634,0.1629,0.1629,0.1624,0.162,0.162,0.1616,0.1619,0.1616,0.1612,0.1606,0.1613,0.1614,0.1614,0.1605,0.1605,0.1605,0.1605,0,0,0.1674,0.1663,0.1665,0.1661,0.1654,0.1654,0.1654,0.165,0.1649,0.1645,0.1644,0.1642,0.1636,0.1634,0.1628,0.1627,0.1631,0.1622,0.1622,0.1622,0.1631,0.1634,0.1634,0.1627,0.1627,0.1627,0.163,0,0.1687,0.1688,0.168,0.1683,0.1681,0.1671,0.167,0.1665,0.1659,0.1657,0.165,0.1648,0.1642,0.164,0.1638,0.1631,0.1633,0.1631,0.1624,0.1624,0.1625,0.1635,0.1639,0.1642,0.1631,0.1631,0.1631,0,0.1704,0.1699,0.1701,0.1691,0.169,0.169,0.1684,0.1682,0.1674,0.167,0.1665,0.1658,0.1655,0.165,0.1644,0.1643,0.1639,0.1635,0.1635,0.1634,0.1628,0.1632,0.1644,0.1643,0.1632,0.1632,0.1632,0,0.172,0.1715,0.1714,0.1712,0.17,0.17,0.1695,0.1687,0.1684,0.1678,0.1675,0.1669,0.1666,0.166,0.165,0.1647,0.1645,0.1639,0.164,0.164,0.164,0.164,0.1649,0.1639,0.1639,0.1639,0.1639,0,0.1735,0.1736,0.1721,0.1721,0.172,0.171,0.171,0.1703,0.1696,0.1692,0.1683,0.168,0.1668,0.1663,0.1655,0.165,0.1649,0.1644,0.1641,0.1644,0.1644,0.1641,0.164,0.1639,0.1639,0.1639,0.1639,0,0.1753,0.1744,0.1742,0.173,0.1727,0.1727,0.1716,0.1714,0.1707,0.1703,0.1701,0.1689,0.1682,0.1672,0.1662,0.1657,0.1652,0.1649,0.1655,0.1653,0.1653,0.1653,0.166,0.166,0.1651,0.1652,0.1652,0,0.1763,0.1763,0.175,0.1747,0.1742,0.1738,0.1734,0.1722,0.1718,0.1708,0.1706,0.1698,0.1692,0.168,0.167,0.1662,0.1658,0.1661,0.1657,0.1658,0.1655,0.1655,0.1654,0.1662,0.1662,0.1662,0.1662,0,0.1779,0.1774,0.1769,0.1761,0.1756,0.1749,0.1742,0.174,0.1727,0.1722,0.1714,0.1709,0.1698,0.1689,0.1679,0.1672,0.1664,0.1663,0.1662,0.1665,0.1667,0.1664,0.1656,0.1663,0.1663,0.1663,0.1663,0.1663,0.1792,0.179,0.178,0.1774,0.1767,0.1759,0.1756,0.1747,0.1741,0.1731,0.1724,0.1716,0.1705,0.169,0.1683,0.1676,0.1673,0.1672,0.1672,0.1672,0.1672,0.1669,0.1674,0.1674,0.1674,0.1674,0.1674,0,0.1806,0.1799,0.1793,0.1782,0.1776,0.1769,0.1759,0.1755,0.1748,0.1738,0.1731,0.1721,0.1711,0.1699,0.1689,0.1685,0.1681,0.1682,0.1682,0.168,0.1676,0.1677,0.1685,0.1685,0.1685,0.1685,0.1685,0.1685,0.1813,0.1808,0.1801,0.1792,0.1784,0.1776,0.1771,0.1763,0.1755,0.1744,0.1736,0.1728,0.1717,0.1705,0.1695,0.1692,0.1688,0.169,0.1685,0.1682,0.1681,0.168,0.168,0.169,0.169,0.169,0.169,0.169]}]]